Date String (YYYY-MM-DD hh:mm:ss) UTC,Instrument flags,absolute air pressure of the measurement (hPa),sample flow rate (lpm),inlet stack bypass flow (lpm),air temperature of the measurement (°C),ambient temperature measured by the external sensor (°C),aerosol sample conditioner tube jacket temperature (°C),OPC LED temperature (°C),internal box temperature (°C),relative humidity of the measurement (%),span deviation,mass concentration of particles derived from Lorenz-Mie calculation of OPC scattering (μg/m³),mass concentration of particles derived from Lorenz-Mie calculation of OPC scattering (μg/m³),mass concentration of particles derived from Lorenz-Mie calculation of OPC scattering (μg/m³)
DateTimeUTC,F1_M11,P_M11,Q1_M11,Q2_M11,T1_M11,T2_M11,T3_M11,T4_M11,T5_M11,U1_M11,ZSPAN_M11,X2_M11,X0_M11,X1_M11
2023-12-17 03:00:00,SystemResetWarning,0831.1,5.00,000.00,025.5,024.3,000.0,033.8,026.7,7.9,0000.0,0000.36,0000.60,0000.27
2023-12-17 03:01:00,SystemResetWarning,0831.0,4.99,000.00,025.5,024.3,000.0,033.8,026.8,8.1,0000.0,0000.37,0000.61,0000.27
2023-12-17 03:02:00,SystemResetWarning,0831.0,5.00,000.00,025.5,024.3,000.0,033.8,026.8,8.0,0000.0,0000.37,0000.60,0000.28
2023-12-17 03:03:00,SystemResetWarning,0831.0,5.00,000.00,025.5,024.3,000.0,033.8,026.7,8.0,0000.0,0000.36,0000.60,0000.28
2023-12-17 03:04:00,SystemResetWarning,0830.9,5.00,000.00,025.4,024.3,000.0,033.8,026.7,7.9,0000.0,0000.35,0000.56,0000.28
2023-12-17 03:05:00,SystemResetWarning,0830.9,5.00,000.00,025.4,024.2,000.0,033.8,026.7,7.9,0000.0,0000.35,0000.56,0000.28
2023-12-17 03:06:00,SystemResetWarning,0830.9,5.01,000.00,025.4,024.2,000.0,033.8,026.7,8.1,0000.0,0000.35,0000.57,0000.28
2023-12-17 03:07:00,SystemResetWarning,0830.9,5.00,000.00,025.4,024.2,000.0,033.8,026.7,8.0,0000.0,0000.35,0000.56,0000.28
2023-12-17 03:08:00,SystemResetWarning,0830.9,5.01,000.00,025.4,024.2,000.0,033.8,026.7,7.9,0000.0,0000.35,0000.56,0000.28
2023-12-17 03:09:00,SystemResetWarning,0830.9,5.01,000.00,025.4,024.2,000.0,033.8,026.6,7.8,0000.0,0000.33,0000.51,0000.27
2023-12-17 03:10:00,SystemResetWarning,0830.9,4.99,000.00,025.4,024.1,000.0,033.7,026.6,7.6,0000.0,0000.30,0000.43,0000.27
2023-12-17 03:11:00,SystemResetWarning,0830.9,4.99,000.00,025.4,024.1,000.0,033.7,026.6,7.7,0000.0,0000.30,0000.44,0000.26
2023-12-17 03:12:00,SystemResetWarning,0830.9,5.01,000.00,025.3,024.1,000.0,033.7,026.6,7.8,0000.0,0000.30,0000.46,0000.26
2023-12-17 03:13:00,SystemResetWarning,0830.9,5.00,000.00,025.3,024.0,000.0,033.7,026.6,7.7,0000.0,0000.30,0000.45,0000.25
2023-12-17 03:14:00,SystemResetWarning,0831.0,5.00,000.00,025.3,024.1,000.0,033.7,026.6,7.7,0000.0,0000.32,0000.50,0000.25
2023-12-17 03:15:00,SystemResetWarning,0830.9,5.00,000.00,025.3,024.1,000.0,033.7,026.6,7.8,0000.0,0000.33,0000.51,0000.25
2023-12-17 03:16:00,SystemResetWarning,0830.9,5.00,000.00,025.3,024.1,000.0,033.7,026.6,7.8,0000.0,0000.31,0000.47,0000.24
2023-12-17 03:17:00,SystemResetWarning,0830.9,4.99,000.00,025.3,024.1,000.0,033.7,026.6,7.8,0000.0,0000.31,0000.47,0000.24
2023-12-17 03:18:00,SystemResetWarning,0830.9,5.00,000.00,025.3,024.1,000.0,033.7,026.6,7.7,0000.0,0000.32,0000.49,0000.24
2023-12-17 03:19:00,SystemResetWarning,0830.9,4.99,000.00,025.3,024.1,000.0,033.7,026.6,7.6,0000.0,0000.32,0000.50,0000.24
2023-12-17 03:20:00,SystemResetWarning,0830.9,5.01,000.00,025.3,024.1,000.0,033.7,026.6,7.6,0000.0,0000.33,0001.07,0000.24
2023-12-17 03:21:00,SystemResetWarning,0830.9,5.01,000.00,025.3,024.1,000.0,033.7,026.6,7.6,0000.0,0000.33,0001.40,0000.24
2023-12-17 03:22:00,SystemResetWarning,0830.9,4.98,000.00,025.3,024.1,000.0,033.6,026.6,7.7,0000.0,0000.31,0001.37,0000.24
2023-12-17 03:23:00,SystemResetWarning,0831.0,5.00,000.00,025.3,024.1,000.0,033.6,026.6,7.6,0000.0,0000.30,0001.33,0000.24
2023-12-17 03:24:00,SystemResetWarning,0831.0,5.01,000.00,025.3,024.1,000.0,033.6,026.6,7.7,0000.0,0000.30,0001.32,0000.23
2023-12-17 03:25:00,SystemResetWarning,0831.0,5.00,000.00,025.3,024.1,000.0,033.6,026.5,7.7,0000.0,0000.28,0001.29,0000.23
2023-12-17 03:26:00,SystemResetWarning,0831.0,4.99,000.00,025.3,024.0,000.0,033.6,026.5,7.6,0000.0,0000.28,0001.29,0000.24
2023-12-17 03:27:00,SystemResetWarning,0831.0,4.99,000.00,025.3,024.0,000.0,033.6,026.5,7.7,0000.0,0000.28,0001.29,0000.24
2023-12-17 03:28:00,SystemResetWarning,0831.1,5.00,000.00,025.2,024.0,000.0,033.6,026.6,7.8,0000.0,0000.29,0001.30,0000.24
2023-12-17 03:29:00,SystemResetWarning,0831.0,5.01,000.00,025.2,024.0,000.0,033.6,026.5,7.9,0000.0,0000.28,0001.28,0000.24
2023-12-17 03:30:00,SystemResetWarning,0831.0,5.00,000.00,025.2,024.0,000.0,033.6,026.5,7.7,0000.0,0000.28,0001.28,0000.24
2023-12-17 03:31:00,SystemResetWarning,0830.9,5.01,000.00,025.2,024.0,000.0,033.6,026.5,7.7,0000.0,0000.27,0000.82,0000.24
2023-12-17 03:32:00,SystemResetWarning,0831.0,5.00,000.00,025.2,024.0,000.0,033.6,026.5,7.8,0000.0,0000.26,0000.34,0000.24
2023-12-17 03:33:00,SystemResetWarning,0831.0,5.00,000.00,025.2,024.0,000.0,033.6,026.5,7.9,0000.0,0000.27,0000.35,0000.24
2023-12-17 03:34:00,SystemResetWarning,0830.9,5.00,000.00,025.2,024.0,000.0,033.6,026.5,8.0,0000.0,0000.27,0000.36,0000.25
2023-12-17 03:35:00,SystemResetWarning,0830.9,5.00,000.00,025.2,023.9,000.0,033.5,026.4,7.6,0000.0,0000.29,0000.38,0000.26
2023-12-17 03:36:00,SystemResetWarning,0830.9,5.00,000.00,025.1,023.9,000.0,033.5,026.4,7.5,0000.0,0000.29,0000.39,0000.26
2023-12-17 03:37:00,SystemResetWarning,0830.9,5.00,000.00,025.1,023.9,000.0,033.5,026.4,7.7,0000.0,0000.30,0000.40,0000.27
2023-12-17 03:38:00,SystemResetWarning,0830.9,5.00,000.00,025.1,023.9,000.0,033.5,026.4,7.6,0000.0,0000.33,0000.47,0000.28
2023-12-17 03:39:00,SystemResetWarning,0830.9,5.00,000.00,025.1,023.9,000.0,033.5,026.4,7.6,0000.0,0000.35,0000.49,0000.29
2023-12-17 03:40:00,SystemResetWarning,0830.9,5.02,000.00,025.1,023.9,000.0,033.5,026.4,7.6,0000.0,0000.35,0000.48,0000.29
2023-12-17 03:41:00,SystemResetWarning,0830.9,4.99,000.00,025.1,023.9,000.0,033.5,026.4,7.6,0000.0,0000.36,0000.50,0000.30
2023-12-17 03:42:00,SystemResetWarning,0830.9,4.99,000.00,025.1,023.9,000.0,033.5,026.4,7.6,0000.0,0000.38,0000.55,0000.30
2023-12-17 03:43:00,SystemResetWarning,0830.9,5.00,000.00,025.1,023.9,000.0,033.5,026.4,7.6,0000.0,0000.40,0001.94,0000.30
2023-12-17 03:44:00,SystemResetWarning,0830.9,5.01,000.00,025.1,023.9,000.0,033.5,026.4,7.7,0000.0,0000.42,0002.13,0000.30
2023-12-17 03:45:00,SystemResetWarning,0831.0,5.01,000.00,025.1,023.9,000.0,033.5,026.4,7.7,0000.0,0000.41,0002.15,0000.30
2023-12-17 03:46:00,SystemResetWarning,0830.9,4.99,000.00,025.1,023.9,000.0,033.5,026.4,7.6,0000.0,0000.41,0002.14,0000.29
2023-12-17 03:47:00,SystemResetWarning,0830.9,5.00,000.00,025.1,023.9,000.0,033.5,026.4,7.6,0000.0,0000.40,0002.14,0000.29
2023-12-17 03:48:00,SystemResetWarning,0830.9,5.00,000.00,025.1,023.8,000.0,033.4,026.4,7.7,0000.0,0000.38,0002.11,0000.28
2023-12-17 03:49:00,SystemResetWarning,0830.8,5.00,000.00,025.0,023.8,000.0,033.4,026.4,7.5,0000.0,0000.37,0002.09,0000.26
2023-12-17 03:50:00,SystemResetWarning,0830.8,5.00,000.00,025.0,023.9,000.0,033.4,026.4,7.6,0000.0,0000.36,0002.10,0000.26
2023-12-17 03:51:00,SystemResetWarning,0830.8,5.00,000.00,025.0,023.8,000.0,033.4,026.3,7.4,0000.0,0000.37,0002.12,0000.25
2023-12-17 03:52:00,SystemResetWarning,0830.8,5.01,000.00,025.0,023.8,000.0,033.4,026.3,7.6,0000.0,0000.36,0002.12,0000.24
2023-12-17 03:53:00,SystemResetWarning,0830.8,5.01,000.00,025.0,023.8,000.0,033.4,026.3,7.7,0000.0,0000.34,0002.07,0000.24
2023-12-17 03:54:00,SystemResetWarning,0830.8,4.99,000.00,025.0,023.8,000.0,033.4,026.3,7.6,0000.0,0000.32,0000.73,0000.24
2023-12-17 03:55:00,SystemResetWarning,0830.8,4.98,000.00,025.0,023.7,000.0,033.4,026.2,7.5,0000.0,0000.30,0000.47,0000.23
2023-12-17 03:56:00,SystemResetWarning,0830.8,5.00,000.00,025.0,023.7,000.0,033.4,026.2,7.6,0000.0,0000.29,0000.45,0000.23
2023-12-17 03:57:00,SystemResetWarning,0830.8,5.01,000.00,024.9,023.7,000.0,033.4,026.1,7.4,0000.0,0000.30,0000.47,0000.23
2023-12-17 03:58:00,SystemResetWarning,0830.9,5.00,000.00,024.9,023.6,000.0,033.4,026.2,7.7,0000.0,0000.30,0000.47,0000.23
2023-12-17 03:59:00,SystemResetWarning,0830.8,4.99,000.00,024.9,023.6,000.0,033.3,026.2,7.9,0000.0,0000.30,0000.46,0000.23
